Sanford, ME

5:31 AM EST on February 20, 2018 (GMT -0500)
Sanford Regional

Weather History for KSFM - April, 2013

Change the Weather History Date:

Tuesday, April 23, 2013

  Actual Average Record
Temperature  
Mean Temperature 34 °F -  
Max Temperature 41 °F 55 °F 84 °F (2008)
Min Temperature 26 °F 32 °F 26 °F (2013)
Degree Days  
Heating Degree Days 32    
Moisture  
Dew Point 32 °F    
Average Humidity 84    
Maximum Humidity 100    
Minimum Humidity 70    
Precipitation  
Precipitation 0.00 in - - ()
Sea Level Pressure  
Sea Level Pressure 30.43 in    
Wind  
Wind Speed 7 mph (NNE)    
Max Wind Speed 17 mph    
Max Gust Speed 22 mph    
Visibility 7 miles    
Events      
Averages and records for this station are not official NWS values.
T = Trace of Precipitation, MM = Missing Value Source: NWS Daily Summary

Daily Weather History Graph

Daily Weather History Graph

Search for Another Location

Airport or City:

Trip Planner

Search our weather history database for the weather conditions in past years. The results will help you decide how hot, cold, wet, or windy it might be!

Date:

Astronomy

Apr. 23, 2013 Rise Set
Actual Time 5:47 AM EDT 7:35 PM EDT
Civil Twilight 5:16 AM EDT 8:06 PM EDT
Nautical Twilight 4:39 AM EDT 8:43 PM EDT
Astronomical Twilight 3:59 AM EDT 9:23 PM EDT
Moon 5:24 PM EDT (4/23) 4:17 AM EDT (4/23)
Length of Visible Light 14h 49m
Length of Day
13h 48m
Waxing Gibbous, 94% of the Moon is Illuminated
Apr 23
Waxing Gibbous
Apr 25
Full
May 2
Last Quarter
May 9
New
May 18
First Quarter

Hourly Weather History & Observations

Time (EDT) Temp. Windchill Dew Point Humidity Pressure Visibility Wind Dir Wind Speed Gust Speed Precip Events Conditions
12:15 AM 28.4 °F - 24.8 °F 86% 30.63 in 10.0 mi Calm Calm - N/A   Clear
12:35 AM 26.6 °F - 23.0 °F 86% 30.63 in 10.0 mi Calm Calm - N/A   Clear
12:55 AM 26.6 °F - 21.2 °F 80% 30.62 in 10.0 mi Calm Calm - N/A   Clear
1:15 AM 26.6 °F - 19.4 °F 74% 30.61 in 10.0 mi Calm Calm - N/A   Clear
1:35 AM 28.4 °F 24.6 °F 21.2 °F 74% 30.60 in 10.0 mi NNE 3.5 mph - N/A   Clear
1:55 AM 28.4 °F 24.6 °F 24.8 °F 86% 30.60 in 10.0 mi NNE 3.5 mph - N/A   Clear
2:15 AM 28.4 °F 23.3 °F 26.6 °F 93% 30.59 in 10.0 mi NNE 4.6 mph - N/A   Clear
2:55 AM 30.2 °F 24.3 °F 28.4 °F 93% 30.58 in 10.0 mi North 5.8 mph - N/A   Scattered Clouds
3:15 AM 32.0 °F 25.6 °F 24.8 °F 75% 30.57 in 10.0 mi North 6.9 mph - N/A   Mostly Cloudy
3:35 AM 32.0 °F 26.4 °F 24.8 °F 75% 30.56 in 10.0 mi NNE 5.8 mph - N/A   Overcast
3:55 AM 32.0 °F 24.8 °F 28.4 °F 87% 30.56 in 10.0 mi NNE 8.1 mph - N/A   Overcast
4:15 AM 33.8 °F 27.7 °F 30.2 °F 87% 30.55 in 10.0 mi NNE 6.9 mph - N/A   Overcast
4:35 AM 33.8 °F 28.6 °F 28.4 °F 81% 30.54 in 10.0 mi NNE 5.8 mph - N/A   Overcast
4:55 AM 33.8 °F 27.0 °F 26.6 °F 75% 30.54 in 10.0 mi North 8.1 mph - N/A   Overcast
5:15 AM 33.8 °F 27.7 °F 26.6 °F 75% 30.54 in 10.0 mi NNE 6.9 mph - N/A   Overcast
5:35 AM 33.8 °F 27.7 °F 26.6 °F 75% 30.54 in 10.0 mi NNE 6.9 mph - N/A   Overcast
6:15 AM 33.8 °F 27.7 °F 32.0 °F 93% 30.54 in 10.0 mi NNE 6.9 mph - N/A   Overcast
6:35 AM 33.8 °F 26.4 °F 28.4 °F 81% 30.53 in 10.0 mi NNE 9.2 mph - N/A   Overcast
6:55 AM 33.8 °F 26.4 °F 26.6 °F 75% 30.54 in 10.0 mi NNE 9.2 mph - N/A   Overcast
7:15 AM 35.6 °F 27.5 °F 26.6 °F 70% 30.54 in 10.0 mi NNE 11.5 mph - N/A   Overcast
7:35 AM 35.6 °F 28.0 °F 26.6 °F 70% 30.53 in 10.0 mi NNE 10.4 mph - N/A   Overcast
7:55 AM 35.6 °F 27.1 °F 28.4 °F 75% 30.54 in 9.0 mi North 12.7 mph - N/A   Overcast
8:15 AM 35.6 °F 28.6 °F 32.0 °F 87% 30.53 in 10.0 mi NNE 9.2 mph - N/A   Overcast
8:35 AM 35.6 °F 28.0 °F 28.4 °F 75% 30.53 in 10.0 mi NNE 10.4 mph - N/A   Overcast
9:15 AM 35.6 °F 27.5 °F 28.4 °F 75% 30.52 in 10.0 mi NNE 11.5 mph - N/A   Overcast
9:35 AM 35.6 °F 27.5 °F 30.2 °F 81% 30.51 in 8.0 mi NNE 11.5 mph - N/A   Overcast
9:55 AM 37.4 °F 29.8 °F 28.4 °F 70% 30.50 in 8.0 mi NNE 11.5 mph - N/A   Overcast
10:15 AM 37.4 °F 29.8 °F 30.2 °F 75% 30.50 in 10.0 mi NE 11.5 mph - N/A   Overcast
10:35 AM 37.4 °F 31.4 °F 33.8 °F 87% 30.50 in 5.0 mi NNE 8.1 mph - N/A   Overcast
10:55 AM 37.4 °F 29.3 °F 30.2 °F 75% 30.49 in 3.0 mi NNE 12.7 mph - N/A   Overcast
11:15 AM 37.4 °F 29.8 °F 30.2 °F 75% 30.50 in 3.0 mi NNE 11.5 mph - N/A   Overcast
11:55 AM 37.4 °F 30.3 °F 33.8 °F 87% 30.48 in 2.5 mi NNE 10.4 mph - N/A   Overcast
12:15 PM 37.4 °F 30.3 °F 35.6 °F 93% 30.47 in 1.8 mi NNE 10.4 mph - N/A   Overcast
12:35 PM 37.4 °F 30.3 °F 35.6 °F 93% 30.46 in 1.8 mi NE 10.4 mph - N/A   Overcast
12:56 PM 37.4 °F 30.3 °F 33.8 °F 87% 30.45 in 1.5 mi NE 10.4 mph - N/A   Overcast
1:15 PM 39.2 °F 31.6 °F 35.6 °F 87% 30.44 in 1.8 mi ENE 12.7 mph - N/A   Overcast
1:35 PM 39.2 °F 31.2 °F 35.6 °F 87% 30.43 in 2.5 mi ENE 13.8 mph 19.6 mph N/A   Overcast
1:55 PM 39.2 °F 31.2 °F 35.6 °F 87% 30.42 in 2.5 mi ENE 13.8 mph 19.6 mph N/A   Overcast
2:15 PM 39.2 °F 32.5 °F 37.4 °F 93% 30.42 in 3.0 mi ENE 10.4 mph - N/A   Overcast
2:35 PM 39.2 °F 31.6 °F 37.4 °F 93% 30.41 in 3.0 mi ENE 12.7 mph 19.6 mph N/A   Overcast
2:55 PM 39.2 °F 32.0 °F 35.6 °F 87% 30.40 in 2.5 mi ENE 11.5 mph 16.1 mph N/A   Overcast
3:15 PM 39.2 °F 31.6 °F 35.6 °F 87% 30.39 in 4.0 mi ENE 12.7 mph 19.6 mph N/A   Overcast
3:35 PM 39.2 °F 30.2 °F 35.6 °F 87% 30.38 in 3.0 mi ENE 17.3 mph 21.9 mph N/A   Overcast
3:55 PM 39.2 °F 31.6 °F 35.6 °F 87% 30.37 in 4.0 mi ENE 12.7 mph - N/A   Overcast
4:15 PM 39.2 °F 31.6 °F 35.6 °F 87% 30.36 in 5.0 mi NE 12.7 mph - N/A   Overcast
4:35 PM 39.2 °F 31.6 °F 35.6 °F 87% 30.36 in 7.0 mi ENE 12.7 mph - N/A   Overcast
4:55 PM 39.2 °F 31.6 °F 37.4 °F 93% 30.36 in 5.0 mi NE 12.7 mph 16.1 mph N/A   Overcast
5:15 PM 39.2 °F 31.6 °F 35.6 °F 87% 30.36 in 4.0 mi NE 12.7 mph - N/A   Overcast
5:35 PM 39.2 °F 32.5 °F 35.6 °F 87% 30.35 in 8.0 mi NE 10.4 mph - N/A   Overcast
5:55 PM 39.2 °F 31.6 °F 35.6 °F 87% 30.34 in 10.0 mi NE 12.7 mph 17.3 mph N/A   Overcast
6:15 PM 39.2 °F 31.6 °F 35.6 °F 87% 30.33 in 10.0 mi NE 12.7 mph 19.6 mph N/A   Overcast
6:35 PM 39.2 °F 31.6 °F 35.6 °F 87% 30.32 in 10.0 mi NE 12.7 mph 18.4 mph N/A   Overcast
6:55 PM 39.2 °F 32.0 °F 35.6 °F 87% 30.31 in 5.0 mi NE 11.5 mph - N/A   Overcast
7:15 PM 39.2 °F 32.5 °F 37.4 °F 93% 30.31 in 5.0 mi NNE 10.4 mph - N/A   Overcast
7:55 PM 39.2 °F 32.5 °F 35.6 °F 87% 30.29 in 5.0 mi NNE 10.4 mph - N/A   Overcast
8:15 PM 39.2 °F 31.6 °F 35.6 °F 87% 30.29 in 10.0 mi NNE 12.7 mph - N/A   Overcast
8:35 PM 39.2 °F 32.0 °F 35.6 °F 87% 30.28 in 10.0 mi North 11.5 mph 18.4 mph N/A   Overcast
8:55 PM 39.2 °F 31.2 °F 35.6 °F 87% 30.27 in 6.0 mi NNE 13.8 mph - N/A   Overcast
9:15 PM 39.2 °F 32.5 °F 35.6 °F 87% 30.25 in 5.0 mi NE 10.4 mph - N/A   Overcast
9:35 PM 39.2 °F 31.2 °F 35.6 °F 87% 30.25 in 5.0 mi NNE 13.8 mph - N/A   Overcast
9:55 PM 39.2 °F 32.0 °F 35.6 °F 87% 30.24 in 5.0 mi North 11.5 mph - N/A   Overcast
10:15 PM 39.2 °F 32.0 °F 37.4 °F 93% 30.23 in 8.0 mi North 11.5 mph - N/A   Overcast
10:35 PM 39.2 °F 32.0 °F 39.2 °F 100% 30.22 in 10.0 mi NNE 11.5 mph - N/A   Overcast
10:55 PM 39.2 °F 32.0 °F 37.4 °F 93% 30.20 in 7.0 mi NNE 11.5 mph - N/A   Overcast
11:15 PM 39.2 °F 30.8 °F 37.4 °F 93% 30.19 in 4.0 mi NNE 15.0 mph 18.4 mph N/A   Overcast
11:35 PM 41.0 °F 35.2 °F 35.6 °F 81% 30.19 in 3.0 mi North 9.2 mph - N/A   Overcast
11:55 PM 41.0 °F 34.3 °F 37.4 °F 87% 30.18 in 3.0 mi North 11.5 mph - N/A   Overcast